Location: Starlight Observatory
(38.4029°N, 85.8936°W)
Time: 07:39:36
(UTC-04:00)

Iridium 84 - Visible Passes

Search period start: 21 April 2015 00:00
Search period end: 01 May 2015 00:00
Orbit: 776 x 779 km, 86.4° (Epoch: 20 April)

Date Brightness Start Highest point End Pass type
(mag) Time Alt. Az. Time Alt. Az. Time Alt. Az.
21 Apr 6.0 20:58:03 10° N 21:03:14 66° W 21:08:23 10° S visible
22 Apr 8.6 22:07:33 10° NW 22:09:55 13° W 22:11:59 10° WSW visible
23 Apr 8.0 21:32:27 10° NNW 21:36:38 24° W 21:40:40 10° SW visible
24 Apr 6.9 20:58:18 10° NNW 21:03:16 44° W 21:08:10 10° SSW visible
26 Apr 8.4 21:33:15 10° NW 21:36:34 17° W 21:39:39 10° WSW visible
27 Apr 7.7 20:58:41 10° NNW 21:03:15 31° W 21:07:43 10° SW visible
29 Apr 8.9 21:34:54 10° WNW 21:36:28 11° WNW 21:37:41 10° W visible
30 Apr 8.4 20:59:16 10° NNW 21:03:12 21° W 21:06:58 10° SW visible
